Creston, British Columbia

4:49 AM MST on February 27, 2017 (GMT -0700)
Creston

Weather History for CWJR - September, 2013

Change the Weather History Date:

Sunday, September 15, 2013

  Actual Average (CYXC) Record (CYXC)
Temperature  
Mean Temperature 74 °F -  
Max Temperature 90 °F 65 °F 86 °F (1998)
Min Temperature 59 °F 42 °F 35 °F (2008)
Cooling Degree Days 10    
Growing Degree Days 24 (Base 50)    
Moisture  
Dew Point 50 °F    
Average Humidity 44    
Maximum Humidity 64    
Minimum Humidity 19    
Precipitation  
Precipitation 0.00 in - - ()
Sea Level Pressure  
Sea Level Pressure 29.83 in    
Wind  
Wind Speed 2 mph ()    
Max Wind Speed 5 mph    
Max Gust Speed -    
Averages and records for this station are not official NWS values.
T = Trace of Precipitation, MM = Missing Value Source: Averaged Metar Reports

Daily Weather History Graph

Daily Weather History Graph

Search for Another Location

Airport or City:

Trip Planner

Search our weather history database for the weather conditions in past years. The results will help you decide how hot, cold, wet, or windy it might be!

Date:

Astronomy

Sep. 15, 2013 Rise Set
Actual Time 6:22 AM MST 6:58 PM MST
Civil Twilight 5:51 AM MST 7:30 PM MST
Nautical Twilight 5:13 AM MST 8:07 PM MST
Astronomical Twilight 4:33 AM MST 8:47 PM MST
Moon 4:43 PM MST (9/15) 1:48 AM MST (9/15)
Length of Visible Light 13h 39m
Length of Day
12h 35m
Waxing Gibbous, 83% of the Moon is Illuminated
Sep 15
Waxing Gibbous
Sep 19
Full
Sep 26
Last Quarter
Oct 4
New
Oct 11
First Quarter

Hourly Weather History & Observations

Time (MST) Temp. Dew Point Humidity Pressure Visibility Wind Dir Wind Speed Gust Speed Precip Events Conditions
12:00 AM 70.5 °F 46.4 °F 42% 29.92 in - NNW 2.3 mph - N/A   Unknown
1:00 AM 68.4 °F 47.3 °F 47% 29.92 in - East 1.2 mph - N/A   Unknown
2:00 AM 66.4 °F 46.9 °F 50% 29.92 in - NW 3.5 mph - N/A   Unknown
3:00 AM 63.3 °F 47.5 °F 56% 29.93 in - North 2.3 mph - N/A   Unknown
4:00 AM 65.3 °F 48.7 °F 55% 29.93 in - ESE 2.3 mph - N/A   Unknown
5:00 AM 64 °F 48 °F 45% 29.93 in - ESE 2.3 mph - -  
5:00 AM 64.2 °F 47.8 °F 55% 29.93 in - ESE 2.3 mph - N/A   Unknown
6:00 AM 62.2 °F 47.7 °F 59% 29.95 in - West 1.2 mph - N/A   Unknown
7:00 AM 60.8 °F 48.4 °F 64% 29.95 in - NW 3.5 mph - N/A   Unknown
8:00 AM 62.4 °F 50.2 °F 64% 29.94 in - ESE 3.5 mph - N/A   Unknown
9:00 AM 67.3 °F 52.3 °F 59% 29.93 in - WSW 2.3 mph - N/A   Unknown
10:00 AM 72.3 °F 53.1 °F 51% 29.91 in - SSW 1.2 mph - N/A   Unknown
11:00 AM 75 °F 52 °F 34% 29.88 in - WSW 2.3 mph - -  
11:00 AM 74.8 °F 52.2 °F 45% 29.88 in - WSW 2.3 mph - N/A   Unknown
12:00 PM 79.0 °F 52.7 °F 40% 29.86 in - WNW 3.5 mph - N/A   Unknown
1:00 PM 81.9 °F 46.8 °F 29% 29.83 in - WNW 3.5 mph - N/A   Unknown
2:00 PM 86.0 °F 47.8 °F 27% 29.80 in - WNW 3.5 mph - N/A   Unknown
3:00 PM 85.8 °F 46.9 °F 26% 29.76 in - NW 3.5 mph - N/A   Unknown
4:00 PM 88.7 °F 46.4 °F 23% 29.73 in - ESE 1.2 mph - N/A   Unknown
5:00 PM 85 °F 49 °F 19% 29.73 in - WNW 2.3 mph - -  
5:00 PM 84.9 °F 49.1 °F 29% 29.73 in - WNW 2.3 mph - N/A   Unknown
6:00 PM 82.0 °F 50.0 °F 33% 29.71 in - ENE 3.5 mph - N/A   Unknown
7:00 PM 78.4 °F 54.1 °F 43% 29.70 in - NNE 2.3 mph - N/A   Unknown
8:00 PM 77.0 °F 51.3 °F 40% 29.69 in - North 3.5 mph - N/A   Unknown
9:00 PM 73.9 °F 52.3 °F 47% 29.70 in - NNW 4.6 mph - N/A   Unknown
10:00 PM 71.8 °F 52.9 °F 51% 29.69 in - NNW 3.5 mph - N/A   Unknown
11:00 PM 70 °F 54 °F 46% 29.67 in - North 2.3 mph - -  
11:00 PM 69.8 °F 53.6 °F 56% 29.67 in - North 2.3 mph - N/A   Unknown